• En España
  • Lista de países
  • Para 7 días
  • Temperatura del agua
  • Mapa Satelital
  • El tiempo en el mapa
  • Informadores
  • user-avatar
    Iniciar sesión

    Tiempo cada hora Zenica

    Hoy, 26 Septiembre, Miércoles

    Tiempo Temperatura Precipitaciones Viento Presión Humedad
    00:00 0°C° 0 mm 3 mps 687 mmHg 77%
    01:00 -1°C° 0 mm 2 mps 687 mmHg 79%
    02:00 -1°C° 0 mm 2 mps 687 mmHg 81%
    03:00 -2°C° 0 mm 2 mps 687 mmHg 84%
    04:00 -2°C° 0 mm 2 mps 687 mmHg 87%
    05:00 -1°C° 0 mm 2 mps 688 mmHg 83%
    06:00 +1°C° 0 mm 2 mps 688 mmHg 78%
    07:00 +1°C° 0 mm 2 mps 688 mmHg 74%
    08:00 +3°C° 0 mm 3 mps 689 mmHg 64%
    09:00 +5°C° 0 mm 3 mps 690 mmHg 54%
    10:00 +7°C° 0 mm 4 mps 690 mmHg 44%
    11:00 +8°C° 0 mm 4 mps 690 mmHg 42%
    12:00 +10°C° 0 mm 4 mps 690 mmHg 40%
    13:00 +11°C° 0 mm 4 mps 690 mmHg 38%
    14:00 +10°C° 0 mm 4 mps 690 mmHg 39%
    15:00 +10°C° 0 mm 3 mps 689 mmHg 41%
    16:00 +10°C° 0 mm 3 mps 689 mmHg 42%
    17:00 +7°C° 0 mm 2 mps 689 mmHg 50%
    18:00 +5°C° 0 mm 2 mps 688 mmHg 57%
    19:00 +4°C° 0 mm 1 mps 688 mmHg 65%
    20:00 +3°C° 0 mm 1 mps 688 mmHg 65%
    21:00 +3°C° 0 mm 1 mps 688 mmHg 66%
    22:00 +2°C° 0 mm 1 mps 688 mmHg 67%
    23:00 +2°C° 0 mm 1 mps 688 mmHg 66%

    Mañana, 27 Septiembre, Jueves

    Tiempo Temperatura Precipitaciones Viento Presión Humedad
    00:00 +2°C° 0 mm 1 mps 688 mmHg 64%
    01:00 +2°C° 0 mm 1 mps 688 mmHg 63%
    02:00 +2°C° 0 mm 1 mps 687 mmHg 60%
    03:00 +2°C° 0 mm 1 mps 687 mmHg 57%
    04:00 +2°C° 0 mm 1 mps 687 mmHg 54%
    05:00 +3°C° 0 mm 1 mps 687 mmHg 51%
    06:00 +4°C° 0 mm 1 mps 687 mmHg 48%
    07:00 +6°C° 0 mm 1 mps 687 mmHg 44%
    08:00 +9°C° 0 mm 1 mps 688 mmHg 38%
    09:00 +12°C° 0 mm 1 mps 688 mmHg 32%
    10:00 +15°C° 0 mm 2 mps 689 mmHg 26%
    11:00 +15°C° 0 mm 2 mps 688 mmHg 25%
    12:00 +16°C° 0 mm 2 mps 688 mmHg 24%
    13:00 +17°C° 0 mm 2 mps 688 mmHg 23%
    14:00 +17°C° 0 mm 2 mps 687 mmHg 27%
    15:00 +16°C° 0 mm 2 mps 687 mmHg 31%
    16:00 +15°C° 0 mm 2 mps 686 mmHg 35%
    17:00 +13°C° 0 mm 2 mps 685 mmHg 39%
    18:00 +10°C° 0 mm 1 mps 684 mmHg 44%
    19:00 +8°C° 0 mm 1 mps 684 mmHg 49%
    20:00 +7°C° 0 mm 1 mps 683 mmHg 49%
    21:00 +7°C° 0 mm 1 mps 683 mmHg 49%
    22:00 +6°C° 0 mm 1 mps 683 mmHg 49%
    23:00 +6°C° 0 mm 1 mps 683 mmHg 48%

    Pasado mañana, 28 Septiembre, Viernes

    Tiempo Temperatura Precipitaciones Viento Presión Humedad
    00:00 +6°C° 0 mm 1 mps 682 mmHg 47%
    01:00 +6°C° 0 mm 1 mps 681 mmHg 47%
    02:00 +6°C° 0 mm 1 mps 681 mmHg 46%
    03:00 +6°C° 0 mm 1 mps 680 mmHg 45%
    04:00 +6°C° 0 mm 1 mps 680 mmHg 44%
    05:00 +7°C° 0 mm 1 mps 680 mmHg 45%
    06:00 +8°C° 0 mm 1 mps 680 mmHg 46%
    07:00 +8°C° 0 mm 1 mps 680 mmHg 47%
    08:00 +11°C° 0 mm 1 mps 680 mmHg 43%
    09:00 +14°C° 0 mm 1 mps 681 mmHg 38%
    10:00 +18°C° 0 mm 1 mps 681 mmHg 34%
    11:00 +18°C° 0 mm 2 mps 681 mmHg 34%
    12:00 +19°C° 0 mm 2 mps 680 mmHg 35%
    13:00 +20°C° 0 mm 2 mps 680 mmHg 35%
    14:00 +19°C° 0 mm 2 mps 680 mmHg 38%
    15:00 +19°C° 0 mm 2 mps 679 mmHg 42%
    16:00 +18°C° 0 mm 2 mps 679 mmHg 45%
    17:00 +15°C° 0 mm 2 mps 678 mmHg 52%
    18:00 +13°C° 0 mm 1 mps 677 mmHg 59%
    19:00 +10°C° 0 mm 1 mps 677 mmHg 66%
    20:00 +9°C° 0 mm 1 mps 677 mmHg 67%
    21:00 +9°C° 0 mm 1 mps 677 mmHg 68%
    22:00 +8°C° 0 mm 1 mps 677 mmHg 70%
    23:00 +8°C° 0 mm 1 mps 676 mmHg 70%

    29 Septiembre, Sábado

    Tiempo Temperatura Precipitaciones Viento Presión Humedad
    00:00 +8°C° 0 mm 1 mps 676 mmHg 71%
    01:00 +7°C° 0 mm 1 mps 676 mmHg 71%
    02:00 +7°C° 0 mm 1 mps 676 mmHg 72%
    03:00 +7°C° 0 mm 1 mps 676 mmHg 72%
    04:00 +7°C° 0 mm 1 mps 676 mmHg 73%
    05:00 +7°C° 0 mm 1 mps 676 mmHg 70%
    06:00 +8°C° 0 mm 1 mps 676 mmHg 68%
    07:00 +9°C° 0 mm 1 mps 676 mmHg 66%
    08:00 +11°C° 0 mm 1 mps 677 mmHg 59%
    09:00 +14°C° 0 mm 2 mps 677 mmHg 52%
    10:00 +16°C° 0 mm 2 mps 678 mmHg 44%
    11:00 +17°C° 0 mm 2 mps 678 mmHg 43%
    12:00 +18°C° 0 mm 3 mps 678 mmHg 42%
    13:00 +19°C° 0 mm 3 mps 678 mmHg 41%
    14:00 +18°C° 0 mm 3 mps 678 mmHg 43%
    15:00 +17°C° 0 mm 3 mps 677 mmHg 46%
    16:00 +16°C° 0 mm 3 mps 677 mmHg 49%
    17:00 +13°C° 0 mm 3 mps 677 mmHg 56%
    18:00 +12°C° 0 mm 3 mps 677 mmHg 64%
    19:00 +10°C° 0 mm 3 mps 677 mmHg 72%
    20:00 +9°C° 0.1 mm 3 mps 678 mmHg 77%
    21:00 +9°C° 0.1 mm 2 mps 678 mmHg 83%
    22:00 +8°C° 0.1 mm 2 mps 678 mmHg 89%
    23:00 +8°C° 0.2 mm 2 mps 678 mmHg 91%

    30 Septiembre, Domingo

    Tiempo Temperatura Precipitaciones Viento Presión Humedad
    00:00 +8°C° 0.2 mm 2 mps 678 mmHg 92%
    01:00 +7°C° 0.2 mm 2 mps 677 mmHg 94%
    02:00 +7°C° 0.4 mm 2 mps 677 mmHg 94%
    03:00 +7°C° 0.4 mm 2 mps 677 mmHg 94%
    04:00 +8°C° 0.4 mm 1 mps 677 mmHg 95%
    05:00 +8°C° 0.4 mm 1 mps 677 mmHg 94%
    06:00 +7°C° 0.4 mm 2 mps 677 mmHg 94%
    07:00 +7°C° 0.4 mm 2 mps 677 mmHg 93%
    08:00 +9°C° 0.3 mm 1 mps 677 mmHg 90%
    09:00 +9°C° 0.3 mm 1 mps 678 mmHg 88%
    10:00 +10°C° 0.3 mm 1 mps 678 mmHg 85%
    11:00 +10°C° 0.5 mm 1 mps 678 mmHg 85%
    12:00 +10°C° 0.5 mm 1 mps 677 mmHg 84%
    13:00 +10°C° 0.5 mm 1 mps 677 mmHg 84%
    14:00 +10°C° 0.5 mm 1 mps 677 mmHg 86%
    15:00 +10°C° 0.5 mm 1 mps 677 mmHg 88%
    16:00 +10°C° 0.5 mm 1 mps 677 mmHg 90%
    17:00 +9°C° 0.3 mm 1 mps 677 mmHg 92%
    18:00 +9°C° 0.3 mm 1 mps 677 mmHg 94%
    19:00 +8°C° 0.3 mm 1 mps 677 mmHg 96%
    20:00 +8°C° 0 mm 1 mps 676 mmHg 96%
    21:00 +8°C° 0 mm 1 mps 676 mmHg 96%
    22:00 +8°C° 0 mm 1 mps 676 mmHg 96%
    23:00 +8°C° 0.2 mm 1 mps 676 mmHg 96%

    1 Octubre, Lunes

    Tiempo Temperatura Precipitaciones Viento Presión Humedad
    00:00 +8°C° 0.2 mm 1 mps 676 mmHg 96%
    01:00 +8°C° 0.2 mm 1 mps 675 mmHg 96%
    02:00 +8°C° 0.3 mm 1 mps 675 mmHg 96%
    03:00 +8°C° 0.3 mm 1 mps 675 mmHg 96%
    04:00 +8°C° 0.3 mm 1 mps 675 mmHg 97%
    05:00 +8°C° 0.1 mm 1 mps 675 mmHg 96%
    06:00 +8°C° 0.1 mm 1 mps 675 mmHg 96%
    07:00 +9°C° 0.1 mm 1 mps 675 mmHg 95%
    08:00 +10°C° 0.1 mm 1 mps 676 mmHg 91%
    09:00 +11°C° 0.1 mm 1 mps 676 mmHg 87%
    10:00 +12°C° 0.1 mm 1 mps 677 mmHg 83%
    11:00 +12°C° 0 mm 1 mps 677 mmHg 81%
    12:00 +13°C° 0 mm 1 mps 677 mmHg 79%
    13:00 +13°C° 0 mm 1 mps 677 mmHg 76%
    14:00 +13°C° 0 mm 1 mps 677 mmHg 77%
    15:00 +13°C° 0 mm 1 mps 677 mmHg 79%
    16:00 +13°C° 0 mm 1 mps 677 mmHg 80%
    17:00 +12°C° 0 mm 1 mps 677 mmHg 85%
    18:00 +10°C° 0 mm 1 mps 677 mmHg 89%
    19:00 +9°C° 0 mm 1 mps 677 mmHg 94%
    20:00 +9°C° 0 mm 1 mps 677 mmHg 95%
    21:00 +8°C° 0 mm 1 mps 677 mmHg 95%
    22:00 +8°C° 0 mm 1 mps 677 mmHg 95%
    23:00 +8°C° 0 mm 1 mps 677 mmHg 95%
    Mostrar más